This is the latest recevied weather packets stored in our database for station/object DR0T. If no packets are shown the sender has not sent any weather packets the latest 1 day(s).
| Time | Temp. | Humidity | Pressure | Rain* | Wind** | Luminosity | Snow |
|---|---|---|---|---|---|---|---|
| 1778058141 | 12.22° C | 87% | 1007.3 hPa | 0 mm | - | - | - |
| 1778057838 | 12.22° C | 86% | 1007.3 hPa | 0 mm | - | - | - |
| 1778056954 | 12.22° C | 87% | 1007.2 hPa | 0 mm | - | - | - |
| 1778056654 | 12.22° C | 88% | 1007.3 hPa | 0 mm | - | - | - |
| 1778056351 | 11.11° C | 88% | 1007.1 hPa | 0 mm | - | - | - |
| 1778056052 | 11.67° C | 89% | 1007.1 hPa | 0 mm | - | - | - |
| 1778055749 | 11.67° C | 89% | 1006.9 hPa | 0 mm | - | - | - |
| 1778055448 | 11.67° C | 89% | 1007 hPa | 0 mm | - | - | - |
| 1778055147 | 12.22° C | 89% | 1006.9 hPa | 0 mm | - | - | - |
| 1778053339 | 11.67° C | 91% | 1006.8 hPa | 0 mm | - | - | - |
| 1778052737 | 11.67° C | 92% | 1006.9 hPa | 0 mm | - | - | - |
| 1778052154 | 11.11° C | 94% | 1006.9 hPa | 0 mm | - | - | - |
| 1778051552 | 11.11° C | 95% | 1007 hPa | 0 mm | - | - | - |
| 1778051255 | 10.56° C | 96% | 1007 hPa | 0 mm | - | - | - |
| 1778050950 | 11.11° C | 95% | 1007 hPa | 0 mm | - | - | - |
| 1778050347 | 11.11° C | 94% | 1007 hPa | 0 mm | - | - | - |
| 1778049448 | 10.56° C | 96% | 1006.9 hPa | 0 mm | - | - | - |
| 1778049142 | 10.56° C | 96% | 1006.9 hPa | 0 mm | - | - | - |
| 1778048540 | 10.56° C | 95% | 1006.9 hPa | 0 mm | - | - | - |
| 1778048239 | 10.56° C | 95% | 1006.7 hPa | 0 mm | - | - | - |
| 1778047638 | 10.56° C | 96% | 1006.8 hPa | 0 mm | - | - | - |
| 1778047359 | 10.56° C | 96% | 1007 hPa | 0 mm | - | - | - |
| 1778047053 | 10.56° C | 97% | 1007 hPa | 0 mm | - | - | - |
| 1778046752 | 10.56° C | 96% | 1006.9 hPa | 0 mm | - | - | - |
| 1778046450 | 10° C | 97% | 1007 hPa | 0 mm | - | - | - |
* Rain latest hour (hover to see other rain measurements)
** Current wind speed in m/s (hover to see current wind gust speed)